Location: Bald Rock
(37.3738°N, 119.9354°W)
Time: 21:10:19
(UTC+00:00)

SJ 16-02 - Pass Details

Date: 08 September 2024
Orbit: 592 x 602 km, 75.0° (Epoch: 12 October)

Event Time Altitude Azimuth Distance (km) Brightness Sun altitude
Rises 13:01:06 0° 179° (S) 2,839 4.6 -7.8°
Reaches altitude 10° 13:03:24 10° 172° (S) 1,939 3.9 -7.3°
Maximum altitude 13:07:28 42° 102° (ESE) 860 2.7 -6.5°
Drops below altitude 10° 13:11:35 10° 31° (NNE) 1,947 4.6 -5.7°
Sets 13:13:53 0° 25° (NNE) 2,852 5.3 -5.3°
